[[{"header":{"parameterUnit":"m.s-1","parameterCategory":1,"la1":30.2991,"la2":30.254,"lo1":-89.0895,"lo2":-89.0444,"dy":0.0017,"dx":0.0017,"nx":28,"ny":28,"refTime":"2024-08-14T03:00:00:Z","depth":0,"parameterNumber":2,"parameterNumberName":"U-component_of_WINDS"},"data":[0,0,0,0,0,0,0,0,0,0,0,0,0,0,0,0,0,0,0,0,0,0,0,0,0,0,0,0,0,0,0,0,0,0,0,0,0,0,0,0,0,0,0,0,0,0,0,0,0,0,0,0,0,0,0,0,0,0,-0.741,-0.741,0,-0.7352,-0.7351,-0.7351,-0.7296,-0.7295,-0.7295,-0.7294,-0.7232,-0.7231,-0.723,0,0,0,0,0,0,0,0,0,0,0,0,0,-0.7472,-0.7471,-0.741,-0.741,-0.7409,-0.7352,-0.7351,-0.7351,-0.7296,-0.7295,-0.7294,-0.7294,-0.7232,-0.7231,-0.723,0,0,0,0,0,0,0,0,0,0,0,0,0,-0.7433,-0.7471,-0.741,-0.7375,-0.7371,-0.7352,-0.7351,-0.735,-0.7296,-0.7295,-0.7294,-0.7293,-0.7233,-0.7231,-0.723,-0.7241,0,0,-0.7225,-0.7224,0,0,0,0,0,0,0,0,-0.7435,-0.7431,-0.7381,-0.7377,-0.7373,-0.733,-0.735,-0.7314,-0.7296,-0.7325,-0.7294,-0.7293,-0.7265,-0.7261,-0.7252,-0.7238,-0.7235,-0.7225,-0.7224,-0.7223,-0.7223,0,0,0,0,0,0,0,-0.7438,-0.7433,-0.7387,-0.738,-0.7375,-0.7361,-0.7354,-0.7343,-0.7301,-0.7322,-0.7318,-0.7312,-0.7263,-0.7254,-0.7251,-0.7234,-0.7225,-0.7224,-0.7223,-0.7222,-0.7225,-0.7226,0,0,0,0,0,0,-0.7446,-0.7436,-0.7389,-0.7385,-0.7402,-0.7361,-0.7353,-0.7345,-0.7301,-0.7294,-0.7313,-0.731,-0.7257,-0.7252,-0.7248,-0.7258,-0.7223,-0.7222,-0.7221,-0.7224,-0.7225,-0.7226,0,0,0,0,0,0,-0.7448,-0.7443,-0.7391,-0.7409,-0.7402,-0.7361,-0.7352,-0.7344,-0.7335,-0.7294,-0.7286,-0.7311,-0.7256,-0.725,-0.7243,-0.7255,-0.7221,-0.722,-0.7223,-0.7224,-0.7226,-0.7277,0,0,0,0,0,0,-0.745,-0.7444,-0.7448,-0.741,-0.7401,-0.7388,-0.7353,-0.7344,-0.7333,-0.7328,-0.7291,-0.7284,-0.7255,-0.7246,-0.7242,-0.7252,-0.7219,-0.7222,-0.7224,-0.7225,-0.7274,-0.728,-0.7285,0,0,0,0,0,-0.7452,-0.7465,-0.7449,-0.7443,-0.7406,-0.7389,-0.7384,-0.7351,-0.7334,-0.7338,-0.7312,-0.7285,-0.7254,-0.7245,-0.724,-0.7251,-0.7221,-0.7223,-0.7225,-0.7272,-0.7279,-0.7285,0,0,0,0,0,0,-0.7505,-0.7459,-0.7441,-0.7441,-0.7419,-0.738,-0.7383,-0.736,-0.7342,-0.7338,-0.7297,-0.7289,-0.7287,-0.7268,-0.7259,-0.7258,-0.7234,-0.7235,-0.7271,-0.7278,-0.7283,-0.7287,-0.7217,0,0,0,0,0,-0.7516,-0.7507,-0.7467,-0.7471,-0.7462,-0.7425,-0.7416,-0.7393,-0.7368,-0.7359,-0.7332,-0.7309,-0.7294,-0.7284,-0.7268,-0.7271,-0.7262,-0.7276,-0.7281,-0.7286,-0.7288,-0.7287,-0.7292,-0.7234,-0.7234,-0.7234,0,0,-0.754,-0.7514,-0.751,-0.7481,-0.7462,-0.7453,-0.7417,-0.7409,-0.7402,-0.7357,-0.7349,-0.7328,-0.73,-0.7298,-0.7295,-0.7282,-0.7302,-0.7289,-0.7293,-0.7292,-0.729,-0.7295,-0.73,-0.7235,-0.7235,-0.7235,0,0,-0.7578,-0.7558,-0.7559,-0.754,-0.7511,-0.7487,-0.7487,-0.7451,-0.7436,-0.7427,-0.7393,-0.7383,-0.7359,-0.7339,-0.7326,-0.7358,-0.7332,-0.7353,-0.7382,-0.7382,-0.7387,-0.7391,-0.7401,-0.7405,-0.7355,-0.7355,-0.7355,0,-0.7611,-0.7597,-0.7562,-0.7556,-0.7544,-0.7504,-0.7504,-0.7488,-0.7455,-0.7447,-0.7433,-0.74,-0.7378,-0.7371,-0.7378,-0.7369,-0.7368,-0.7357,-0.7389,-0.7392,-0.7396,-0.7405,-0.7409,-0.7358,-0.7358,-0.7357,-0.7357,0,-0.7638,-0.7629,-0.7633,-0.7603,-0.7591,-0.7589,-0.7553,-0.7545,-0.7523,-0.7499,-0.749,-0.7462,-0.744,-0.7436,-0.7414,-0.7425,-0.7418,-0.7397,-0.7371,-0.7405,-0.7413,-0.7416,-0.7362,-0.7361,-0.736,-0.7359,0,0,-0.7708,-0.7659,-0.7661,-0.7647,-0.7612,-0.7604,-0.7599,-0.7577,-0.7571,-0.755,-0.7544,-0.7524,-0.7504,-0.7489,-0.7464,-0.7464,-0.749,-0.7443,-0.7442,-0.7452,-0.75,-0.7515,-0.752,-0.7473,-0.7474,-0.7474,-0.7502,0,-0.774,-0.773,-0.7698,-0.7697,-0.7687,-0.7649,-0.7645,-0.7622,-0.76,-0.7588,-0.7563,-0.755,-0.7525,-0.7516,-0.7514,-0.7487,-0.7499,-0.7485,-0.7466,-0.7466,-0.7474,-0.7524,-0.7541,-0.7568,-0.7505,-0.7505,-0.7506,0,-0.7776,-0.7758,-0.7756,-0.7722,-0.7716,-0.7713,-0.769,-0.768,-0.7653,-0.7637,-0.7621,-0.7594,-0.7585,-0.7562,-0.7549,-0.754,-0.753,-0.7516,-0.7516,-0.7513,-0.7488,-0.7522,-0.7576,-0.758,-0.751,-0.751,-0.751,0,-0.7827,-0.7802,-0.7797,-0.7786,-0.7746,-0.7744,-0.7727,-0.77,-0.7689,-0.7669,-0.7661,-0.764,-0.7629,-0.7613,-0.758,-0.7566,-0.757,-0.7544,-0.7556,-0.7557,-0.7558,-0.7558,-0.7611,-0.7553,-0.7553,-0.7553,-0.7553,0,-0.7866,-0.7866,-0.7819,-0.7816,-0.7815,-0.7779,-0.7778,-0.7757,-0.7733,-0.7725,-0.769,-0.7683,-0.7641,-0.7628,-0.7602,-0.7595,-0.759,-0.7576,-0.7569,-0.7579,-0.758,-0.7571,-0.7568,-0.7554,-0.7554,-0.7553,-0.7553,0,-0.7922,-0.789,-0.7883,-0.7845,-0.7836,-0.7836,-0.7804,-0.7799,-0.7775,-0.7765,-0.776,-0.7722,-0.7705,-0.7671,-0.7645,-0.7628,-0.7626,-0.7614,-0.7636,-0.7631,-0.7644,-0.7643,-0.7693,-0.7697,-0.7637,-0.7638,-0.7638,0,-0.7948,-0.7947,-0.791,-0.7902,-0.7887,-0.7875,-0.7864,-0.7828,-0.7817,-0.7787,-0.7786,-0.7767,-0.7749,-0.7725,-0.7694,-0.7673,-0.766,-0.7679,-0.7657,-0.7666,-0.7659,-0.766,-0.7659,-0.7684,-0.7685,-0.7685,-0.7686,0,-0.7999,-0.7983,-0.7969,-0.7949,-0.7937,-0.7919,-0.7899,-0.7895,-0.7854,-0.7844,-0.7827,-0.7814,-0.7787,-0.7768,-0.7743,-0.7724,-0.7698,-0.7693,-0.7694,-0.7704,-0.7716,-0.7709,-0.7648,-0.7692,-0.7691,-0.7691,-0.7691,-0.769,-0.804,-0.8037,-0.8011,-0.7996,-0.7977,-0.796,-0.7953,-0.7929,-0.7914,-0.7891,-0.787,-0.7855,-0.7827,-0.7791,-0.7774,-0.7761,-0.7748,-0.775,-0.775,-0.7751,-0.7755,-0.7719,-0.7756,-0.7756,-0.7755,-0.7755,-0.7755,0,-0.8088,-0.8069,-0.8056,-0.803,-0.8018,-0.7995,-0.7972,-0.7963,-0.795,-0.7928,-0.7912,-0.7892,-0.7873,-0.7841,-0.7819,-0.7815,-0.7802,-0.781,-0.781,-0.7806,-0.7768,-0.7769,-0.7821,-0.7821,-0.7821,-0.7821,-0.7821,-0.7821,-0.8112,-0.8106,-0.8087,-0.8072,-0.8052,-0.8038,-0.8027,-0.801,-0.7991,-0.7971,-0.7956,-0.7936,-0.7908,-0.7885,-0.7866,-0.7857,-0.785,-0.7862,-0.7849,-0.7814,-0.7808,-0.7802,-0.7803,-0.7861,-0.7861,-0.7887,-0.7887,-0.7888]},{"header":{"parameterUnit":"m.s-1","parameterCategory":1,"la1":30.2991,"la2":30.254,"lo1":-89.0895,"lo2":-89.0444,"dy":0.0017,"dx":0.0017,"nx":28,"ny":28,"refTime":"2024-08-14T03:00:00:Z","depth":0,"parameterNumber":3,"parameterNumberName":"V-component_of_WINDS"},"data":[0,0,0,0,0,0,0,0,0,0,0,0,0,0,0,0,0,0,0,0,0,0,0,0,0,0,0,0,0,0,0,0,0,0,0,0,0,0,0,0,0,0,0,0,0,0,0,0,0,0,0,0,0,0,0,0,0,0,2.1344,2.1342,0,2.1105,2.1102,2.1099,2.0938,2.0937,2.0936,2.0935,2.0681,2.0676,2.067,0,0,0,0,0,0,0,0,0,0,0,0,0,2.1656,2.1651,2.1345,2.1341,2.1339,2.1105,2.1102,2.1099,2.0938,2.0937,2.0935,2.0934,2.0683,2.0676,2.0669,0,0,0,0,0,0,0,0,0,0,0,0,0,2.1479,2.1649,2.1345,2.1231,2.1218,2.1106,2.1102,2.1098,2.0938,2.0937,2.0935,2.0934,2.0685,2.0677,2.0668,2.0649,0,0,2.0642,2.0638,0,0,0,0,0,0,0,0,2.1489,2.1467,2.125,2.1238,2.1224,2.105,2.1118,2.0947,2.0939,2.1044,2.0935,2.0933,2.0805,2.0786,2.0744,2.0637,2.0626,2.0641,2.0636,2.0633,2.063,0,0,0,0,0,0,0,2.1501,2.1477,2.1249,2.1247,2.1231,2.1189,2.1162,2.1085,2.0936,2.1035,2.1023,2.0997,2.0797,2.0753,2.0737,2.0622,2.0642,2.0634,2.0629,2.0625,2.0486,2.0488,0,0,0,0,0,0,2.1533,2.1488,2.1257,2.1242,2.1355,2.1185,2.1154,2.1107,2.0937,2.0909,2.0999,2.099,2.0769,2.0747,2.0728,2.0693,2.0633,2.0625,2.062,2.0485,2.0487,2.0488,0,0,0,0,0,0,2.154,2.1514,2.1266,2.1362,2.1327,2.1181,2.1129,2.1103,2.1059,2.0909,2.0881,2.0982,2.0766,2.074,2.067,2.0683,2.0621,2.0613,2.0483,2.0486,2.0488,2.0626,0,0,0,0,0,0,2.155,2.1517,2.151,2.1363,2.1323,2.1216,2.113,2.11,2.1046,2.1033,2.0886,2.086,2.0763,2.0684,2.0662,2.067,2.0606,2.0481,2.0484,2.0487,2.0619,2.0632,2.0643,0,0,0,0,0,2.1561,2.1556,2.151,2.1483,2.1311,2.1217,2.1193,2.1084,2.1048,2.1038,2.0942,2.0865,2.0685,2.0678,2.0652,2.0657,2.048,2.0483,2.0487,2.0614,2.063,2.0643,0,0,0,0,0,0,2.1705,2.1535,2.1482,2.143,2.134,2.119,2.1174,2.1104,2.102,2.1011,2.0876,2.0844,2.0789,2.0715,2.0711,2.0629,2.0573,2.0572,2.0679,2.0693,2.0705,2.0723,2.0599,0,0,0,0,0,2.1732,2.1672,2.1525,2.1493,2.1451,2.1321,2.1276,2.12,2.1099,2.1059,2.0958,2.0861,2.0783,2.0734,2.0653,2.0608,2.0574,2.0599,2.0611,2.0622,2.0622,2.0593,2.0602,2.0499,2.0499,2.0499,0,0,2.1784,2.1683,2.1653,2.152,2.144,2.138,2.1289,2.1228,2.1181,2.1049,2.0978,2.0901,2.0784,2.0727,2.0696,2.0664,2.0643,2.0626,2.0636,2.0629,2.0597,2.0607,2.0616,2.0501,2.0501,2.0501,0,0,2.1848,2.1767,2.1731,2.1655,2.1538,2.1452,2.1444,2.1305,2.125,2.1177,2.1077,2.1018,2.0885,2.0807,2.0749,2.0787,2.0713,2.0764,2.0827,2.08,2.0808,2.0815,2.0828,2.0834,2.0764,2.0765,2.0765,0,2.1927,2.1834,2.1721,2.1667,2.1611,2.1492,2.1454,2.1385,2.1246,2.1209,2.1176,2.1009,2.0922,2.0845,2.0855,2.0812,2.0798,2.078,2.0817,2.0822,2.0826,2.0837,2.0843,2.0772,2.0771,2.077,2.077,0,2.1936,2.1874,2.1859,2.1732,2.1674,2.1628,2.1507,2.1462,2.1392,2.1309,2.1236,2.1128,2.1024,2.1,2.0929,2.0914,2.0897,2.0843,2.0783,2.0845,2.0853,2.0856,2.0782,2.0779,2.0777,2.0775,0,0,2.2082,2.1897,2.1893,2.1834,2.1698,2.1645,2.1594,2.1496,2.1459,2.1368,2.132,2.1213,2.1162,2.1097,2.1016,2.0994,2.103,2.094,2.0936,2.0961,2.1006,2.1048,2.1055,2.0981,2.0981,2.0982,2.1016,0,2.2125,2.203,2.1929,2.1868,2.1808,2.1696,2.1651,2.1561,2.1483,2.1418,2.133,2.1257,2.1195,2.1155,2.1127,2.1032,2.1037,2.1028,2.0934,2.0932,2.0967,2.1059,2.1103,2.114,2.1018,2.1019,2.1019,0,2.2162,2.2081,2.2016,2.1886,2.1857,2.1819,2.1721,2.1662,2.1558,2.1502,2.1432,2.1347,2.1286,2.1236,2.1148,2.1145,2.11,2.1048,2.1046,2.1032,2.0979,2.1047,2.1149,2.1156,2.1023,2.1022,2.1022,0,2.2276,2.2149,2.2094,2.2047,2.1894,2.187,2.1805,2.1699,2.1647,2.1561,2.1525,2.1432,2.1381,2.131,2.1202,2.1176,2.1127,2.1067,2.1078,2.1081,2.1071,2.1073,2.1168,2.1045,2.1044,2.1044,2.1044,0,2.2334,2.2298,2.2143,2.2109,2.2066,2.1949,2.1908,2.1832,2.174,2.1687,2.1583,2.1536,2.1397,2.1332,2.1247,2.1188,2.1166,2.1118,2.1096,2.1127,2.1133,2.1095,2.109,2.1046,2.1045,2.1045,2.1045,0,2.2452,2.2347,2.2279,2.2142,2.2106,2.2081,2.1961,2.1923,2.184,2.1775,2.1753,2.1622,2.1541,2.1427,2.131,2.1253,2.1206,2.1171,2.1243,2.1229,2.1247,2.1247,2.1319,2.1322,2.1199,2.12,2.1202,0,2.2496,2.2467,2.2327,2.2287,2.2226,2.2161,2.2109,2.1992,2.1941,2.1822,2.1798,2.171,2.1633,2.1509,2.1402,2.1312,2.1273,2.1305,2.1259,2.1292,2.1273,2.1277,2.1273,2.1316,2.1318,2.1319,2.1321,0,2.2585,2.2535,2.2465,2.2378,2.2319,2.2243,2.2162,2.2134,2.1999,2.1947,2.1865,2.1806,2.1689,2.1603,2.15,2.1429,2.1352,2.1337,2.1334,2.1365,2.1409,2.1386,2.1273,2.1335,2.1333,2.1332,2.1332,2.1331,2.2667,2.2636,2.2534,2.2459,2.2387,2.2315,2.2273,2.2186,2.2117,2.2015,2.1949,2.1871,2.1767,2.1621,2.1555,2.1491,2.1459,2.1456,2.1454,2.1455,2.1467,2.1421,2.1471,2.1471,2.147,2.1469,2.1469,0,2.275,2.268,2.2613,2.2505,2.2447,2.2383,2.2291,2.2245,2.2178,2.209,2.2018,2.1924,2.184,2.1728,2.1636,2.1606,2.1569,2.1586,2.1586,2.1571,2.15,2.1511,2.1618,2.1618,2.1618,2.1618,2.1618,2.1618,2.2787,2.2732,2.2671,2.2578,2.2507,2.2432,2.2385,2.2317,2.2246,2.2147,2.2078,2.2007,2.1908,2.1809,2.1729,2.1697,2.1668,2.1696,2.1655,2.159,2.1576,2.1563,2.1573,2.1691,2.1691,2.1731,2.1731,2.1732]}]]